TimeEST,TemperatureF,Dew PointF,Humidity,Sea Level PressureIn,VisibilityMPH,Wind Direction,Wind SpeedMPH,Gust SpeedMPH,PrecipitationIn,Events,Conditions,WindDirDegrees,DateUTC
12:15 AM,24.4,19.9,83,30.30,10.0,NW,3.5,-,N/A,,Clear,320,2013-01-15 05:15:00
12:34 AM,23.9,19.4,83,30.31,10.0,Calm,Calm,-,N/A,,Clear,0,2013-01-15 05:34:00
12:55 AM,24.3,20.1,84,30.30,10.0,Calm,Calm,-,N/A,,Scattered Clouds,0,2013-01-15 05:55:00
1:15 AM,24.4,20.3,84,30.31,10.0,NNW,3.5,-,N/A,,Mostly Cloudy,330,2013-01-15 06:15:00
1:34 AM,24.8,20.3,83,30.31,10.0,NNW,3.5,-,N/A,,Overcast,330,2013-01-15 06:34:00
1:55 AM,25.3,20.3,81,30.32,10.0,Calm,Calm,-,N/A,,Overcast,0,2013-01-15 06:55:00
2:15 AM,25.3,20.3,81,30.33,10.0,NNW,3.5,-,N/A,,Overcast,340,2013-01-15 07:15:00
2:34 AM,25.3,20.3,81,30.33,10.0,Calm,Calm,-,N/A,,Overcast,0,2013-01-15 07:34:00
2:55 AM,25.3,19.8,79,30.32,10.0,North,4.6,-,N/A,,Mostly Cloudy,350,2013-01-15 07:55:00
3:15 AM,24.8,19.2,79,30.32,10.0,Calm,Calm,-,N/A,,Mostly Cloudy,0,2013-01-15 08:15:00
3:35 AM,25.2,19.4,79,30.31,10.0,North,3.5,-,N/A,,Overcast,350,2013-01-15 08:35:00
3:55 AM,25.5,20.1,80,30.31,10.0,North,3.5,-,N/A,,Overcast,350,2013-01-15 08:55:00
4:15 AM,26.1,21.0,81,30.31,10.0,Calm,Calm,-,N/A,,Overcast,0,2013-01-15 09:15:00
4:35 AM,26.2,21.0,81,30.31,10.0,NW,5.8,-,N/A,,Overcast,320,2013-01-15 09:35:00
4:54 AM,26.4,21.0,80,30.31,10.0,NW,4.6,-,N/A,,Overcast,320,2013-01-15 09:54:00
5:15 AM,26.4,21.2,81,30.31,10.0,NNW,4.6,-,N/A,,Overcast,330,2013-01-15 10:15:00
5:55 AM,26.6,21.2,80,30.31,10.0,NNW,5.8,-,N/A,,Overcast,330,2013-01-15 10:55:00
6:15 AM,26.6,21.2,80,30.32,10.0,NNW,3.5,-,N/A,,Overcast,330,2013-01-15 11:15:00
6:34 AM,26.6,21.2,80,30.33,10.0,North,5.8,-,N/A,,Overcast,350,2013-01-15 11:34:00
6:55 AM,27.1,21.4,79,30.34,10.0,North,3.5,-,N/A,,Overcast,10,2013-01-15 11:55:00
7:15 AM,27.1,21.2,78,30.34,10.0,North,4.6,-,N/A,,Overcast,360,2013-01-15 12:15:00
7:34 AM,27.3,20.5,75,30.35,10.0,North,4.6,-,N/A,,Overcast,360,2013-01-15 12:34:00
7:55 AM,27.3,20.5,75,30.35,10.0,North,4.6,-,N/A,,Overcast,350,2013-01-15 12:55:00
8:15 AM,27.3,20.3,75,30.36,10.0,North,6.9,-,N/A,,Overcast,360,2013-01-15 13:15:00
8:34 AM,27.5,20.1,74,30.36,10.0,North,5.8,-,N/A,,Overcast,10,2013-01-15 13:34:00
8:55 AM,27.5,19.2,71,30.37,10.0,North,8.1,-,N/A,,Overcast,360,2013-01-15 13:55:00
9:15 AM,27.7,19.9,73,30.35,10.0,ENE,6.9,-,N/A,,Overcast,60,2013-01-15 14:15:00
9:35 AM,28.2,19.2,69,30.36,10.0,NE,6.9,-,N/A,,Overcast,40,2013-01-15 14:35:00
9:55 AM,28.6,19.6,69,30.36,10.0,North,6.9,-,N/A,,Overcast,360,2013-01-15 14:55:00
10:15 AM,28.8,19.2,68,30.36,10.0,NE,4.6,-,N/A,,Overcast,40,2013-01-15 15:15:00
10:35 AM,29.5,19.8,67,30.36,10.0,NNE,4.6,-,N/A,,Overcast,30,2013-01-15 15:35:00
10:55 AM,29.1,18.7,65,30.35,10.0,North,5.8,-,N/A,,Scattered Clouds,10,2013-01-15 15:55:00
11:15 AM,30.2,19.2,64,30.33,10.0,North,5.8,-,N/A,,Clear,10,2013-01-15 16:15:00
11:35 AM,30.4,20.1,66,30.32,10.0,NNE,5.8,-,N/A,,Clear,30,2013-01-15 16:35:00
11:55 AM,30.6,20.1,65,30.32,10.0,NNE,6.9,-,N/A,,Clear,30,2013-01-15 16:55:00
12:15 PM,30.7,19.4,63,30.31,10.0,NE,5.8,-,N/A,,Clear,50,2013-01-15 17:15:00
12:34 PM,32.0,19.8,61,30.31,10.0,Calm,Calm,-,N/A,,Clear,0,2013-01-15 17:34:00
12:55 PM,32.0,19.9,61,30.30,10.0,NNE,3.5,-,N/A,,Clear,30,2013-01-15 17:55:00
1:15 PM,32.0,20.1,62,30.29,10.0,NNE,4.6,-,N/A,,Clear,20,2013-01-15 18:15:00
1:35 PM,31.6,19.6,61,30.28,10.0,NE,5.8,-,N/A,,Clear,50,2013-01-15 18:35:00
1:54 PM,30.6,19.2,63,30.25,10.0,NE,6.9,-,N/A,,Clear,50,2013-01-15 18:54:00
2:15 PM,31.1,21.2,67,30.26,10.0,ENE,5.8,-,N/A,,Clear,70,2013-01-15 19:15:00
2:54 PM,32.0,20.8,63,30.27,10.0,NE,5.8,-,N/A,,Clear,50,2013-01-15 19:54:00
3:15 PM,31.1,19.8,63,30.26,10.0,ENE,4.6,-,N/A,,Clear,60,2013-01-15 20:15:00
3:35 PM,30.7,19.8,64,30.25,10.0,NE,5.8,-,N/A,,Clear,40,2013-01-15 20:35:00
4:15 PM,30.2,19.8,65,30.25,10.0,ENE,8.1,-,N/A,,Clear,60,2013-01-15 21:15:00
4:35 PM,30.2,19.6,65,30.26,10.0,ENE,6.9,-,N/A,,Clear,70,2013-01-15 21:35:00
4:55 PM,29.8,20.3,68,30.24,10.0,ENE,8.1,-,N/A,,Clear,60,2013-01-15 21:55:00
5:15 PM,29.7,19.6,66,30.24,10.0,ENE,6.9,-,N/A,,Clear,70,2013-01-15 22:15:00
5:35 PM,29.7,19.0,65,30.25,10.0,East,4.6,-,N/A,,Clear,80,2013-01-15 22:35:00
5:54 PM,29.3,19.8,68,30.26,10.0,East,4.6,-,N/A,,Clear,100,2013-01-15 22:54:00
6:15 PM,29.3,20.3,69,30.23,10.0,East,5.8,-,N/A,,Clear,80,2013-01-15 23:15:00
6:35 PM,29.3,20.3,69,30.22,10.0,NNE,4.6,-,N/A,,Clear,30,2013-01-15 23:35:00
6:54 PM,29.3,20.7,70,30.22,10.0,ENE,3.5,-,N/A,,Clear,60,2013-01-15 23:54:00
7:15 PM,29.3,20.8,71,30.21,10.0,East,5.8,-,N/A,,Scattered Clouds,90,2013-01-16 00:15:00
7:35 PM,29.3,20.1,69,30.22,10.0,Calm,Calm,-,N/A,,Scattered Clouds,0,2013-01-16 00:35:00
7:55 PM,29.3,21.2,72,30.20,10.0,East,4.6,-,N/A,,Scattered Clouds,80,2013-01-16 00:55:00
8:15 PM,29.3,21.0,71,30.19,10.0,ENE,5.8,-,N/A,,Mostly Cloudy,70,2013-01-16 01:15:00
8:35 PM,29.3,20.8,71,30.19,10.0,NE,4.6,-,N/A,,Overcast,50,2013-01-16 01:35:00
8:55 PM,29.1,21.7,74,30.17,10.0,ENE,5.8,-,N/A,,Overcast,70,2013-01-16 01:55:00
9:15 PM,28.9,21.9,75,30.16,10.0,ENE,5.8,-,N/A,,Overcast,70,2013-01-16 02:15:00
9:35 PM,28.4,21.9,77,30.15,10.0,ENE,6.9,-,N/A,,Overcast,70,2013-01-16 02:35:00
9:54 PM,28.4,21.9,77,30.14,10.0,NE,5.8,-,N/A,,Overcast,40,2013-01-16 02:54:00
10:15 PM,28.4,21.7,76,30.14,10.0,NNE,3.5,-,N/A,,Overcast,30,2013-01-16 03:15:00
10:35 PM,28.4,21.7,76,30.14,10.0,NNE,3.5,-,N/A,,Overcast,30,2013-01-16 03:35:00
10:54 PM,28.4,21.7,76,30.12,10.0,NE,3.5,-,N/A,,Overcast,50,2013-01-16 03:54:00
11:15 PM,28.4,21.9,77,30.10,10.0,ENE,5.8,-,N/A,,Overcast,70,2013-01-16 04:15:00
11:35 PM,28.4,21.6,76,30.09,10.0,ENE,6.9,-,N/A,,Overcast,60,2013-01-16 04:35:00
11:55 PM,28.4,21.7,76,30.07,10.0,East,8.1,-,N/A,,Overcast,80,2013-01-16 04:55:00